This is the latest recevied weather packets stored in our database for station/object YO8RXT-3. If no packets are shown the sender has not sent any weather packets the latest 10 day(s).
| Time | Temp. | Humidity | Pressure | Rain* | Wind** | Luminosity | Snow |
|---|---|---|---|---|---|---|---|
| 1778123103 | 10° C | 71% | 1015 hPa | - | - | - | - |
| 1778121302 | 10° C | 71% | 1015 hPa | - | - | - | - |
| 1778119503 | 11.11° C | 67% | 1014 hPa | - | - | - | - |
| 1778117702 | 12.78° C | 55% | 1014 hPa | - | - | - | - |
| 1778115903 | 13.89° C | 48% | 1014 hPa | - | - | - | - |
| 1778114102 | 13.89° C | 48% | 1015 hPa | - | - | - | - |
| 1778112303 | 13.89° C | 48% | 1015 hPa | - | - | - | - |
| 1778110503 | 15° C | 45% | 1015 hPa | - | - | - | - |
| 1778108703 | 17.22° C | 42% | 1015 hPa | - | - | - | - |
| 1778106903 | 16.11° C | 48% | 1014 hPa | - | - | - | - |
| 1778105103 | 17.22° C | 49% | 1015 hPa | - | - | - | - |
| 1778103303 | 17.22° C | 49% | 1014 hPa | - | - | - | - |
| 1778101502 | 17.78° C | 46% | 1014 hPa | - | - | - | - |
| 1778099703 | 17.78° C | 46% | 1014 hPa | - | - | - | - |
| 1778097902 | 18.89° C | 43% | 1014 hPa | - | - | - | - |
| 1778096102 | 18.89° C | 43% | 1014 hPa | - | - | - | - |
| 1778094303 | 20° C | 40% | 1014 hPa | - | - | - | - |
| 1778092503 | 21.11° C | 38% | 1013 hPa | - | - | - | - |
| 1778090702 | 22.22° C | 36% | 1013 hPa | - | - | - | - |
| 1778088903 | 22.22° C | 36% | 1013 hPa | - | - | - | - |
| 1778087102 | 22.78° C | 31% | 1012 hPa | - | - | - | - |
| 1778085303 | 23.89° C | 31% | 1012 hPa | - | - | - | - |
| 1778083503 | 23.89° C | 29% | 1012 hPa | - | - | - | - |
| 1778081703 | 25° C | 30% | 1012 hPa | - | - | - | - |
| 1778079902 | 26.11° C | 30% | 1012 hPa | - | - | - | - |
* Rain since midnight (hover to see other rain measurements)
** Current wind speed in m/s (hover to see current wind gust speed)